Menomonie, WI

11:20 PM CST on December 15, 2019 (GMT -0600)
Menomonie

Weather History for KLUM - October, 2019

Change the Weather History Date:

Tuesday, October 22, 2019

  Actual Average (WUND) Record (WUND)
Temperature  
Mean Temperature 39 °F -  
Max Temperature 41 °F - - (-1)
Min Temperature 37 °F - - (-1)
Degree Days  
Heating Degree Days 26    
Moisture  
Dew Point 36 °F    
Average Humidity 90    
Maximum Humidity 100    
Minimum Humidity 74    
Precipitation  
Precipitation 0.01 in - - ()
Sea Level Pressure  
Sea Level Pressure 29.40 in    
Wind  
Wind Speed 10 mph (WSW)    
Max Wind Speed 24 mph    
Max Gust Speed 31 mph    
Visibility 9 miles    
Events Rain    
Averages and records for this station are not official NWS values.
T = Trace of Precipitation, MM = Missing Value Source: NWS Daily Summary

Daily Weather History Graph

Daily Weather History Graph

Search for Another Location

Airport or City:

Astronomy

Oct. 22, 2019 Rise Set
Actual Time 7:31 AM CDT 6:11 PM CDT
Civil Twilight 7:02 AM CDT 6:41 PM CDT
Nautical Twilight 6:27 AM CDT 7:15 PM CDT
Astronomical Twilight 5:53 AM CDT 7:49 PM CDT
Moon 12:20 AM CDT (10/22) 3:40 PM CDT (10/22)
Length of Visible Light 11h 39m
Length of Day
10h 39m
Last Quarter, 37% of the Moon is Illuminated
Oct 22
Last Quarter
Oct 27
New
Nov 4
First Quarter
Nov 12
Full
Nov 19
Last Quarter

Hourly Weather History & Observations

Time (CDT) Temp. Windchill Dew Point Humidity Pressure Visibility Wind Dir Wind Speed Gust Speed Precip Events Conditions
12:15 AM 41.9 °F 37.5 °F 40.5 °F 95% 29.18 in 7.0 mi South 6.9 mph - N/A Rain Light Rain
12:35 AM 41.5 °F 39.6 °F 40.3 °F 95% 29.18 in 10.0 mi SSE 3.5 mph - N/A   Overcast
12:55 AM 41.2 °F - 40.5 °F 97% 29.18 in 10.0 mi Calm Calm - N/A   Drizzle
1:15 AM 41.0 °F - 40.5 °F 98% 29.18 in 10.0 mi Calm Calm - N/A   Drizzle
1:35 AM 41.0 °F - 41.0 °F 100% 29.18 in 10.0 mi Calm Calm - N/A   Drizzle
1:55 AM 41.0 °F - 40.6 °F 99% 29.18 in 10.0 mi Calm Calm - N/A   Drizzle
2:35 AM 40.3 °F - 40.1 °F 99% 29.19 in 10.0 mi Calm Calm - N/A Rain Light Rain
2:55 AM 40.1 °F 38.0 °F 40.1 °F 100% 29.19 in 10.0 mi SSE 3.5 mph - N/A   Overcast
3:15 AM 40.1 °F - 39.6 °F 98% 29.19 in 10.0 mi Calm Calm - N/A   Overcast
3:35 AM 40.1 °F - 39.7 °F 99% 29.19 in 5.0 mi Calm Calm - N/A   Overcast
3:55 AM 40.3 °F - 40.3 °F 100% 29.19 in 10.0 mi Calm Calm - N/A   Overcast
4:15 AM 40.6 °F 38.6 °F 40.6 °F 100% 29.19 in 10.0 mi SSW 3.5 mph - N/A   Overcast
4:35 AM 41.4 °F 38.4 °F 41.4 °F 100% 29.20 in 10.0 mi WSW 4.6 mph - N/A   Overcast
4:55 AM 41.9 °F 36.9 °F 41.9 °F 100% 29.21 in 5.0 mi West 8.1 mph - N/A Rain Rain
5:15 AM 41.0 °F 33.1 °F 40.6 °F 99% 29.22 in 4.0 mi West 15.0 mph 24.2 mph N/A   Overcast
5:35 AM 40.1 °F 32.7 °F 39.7 °F 99% 29.23 in 7.0 mi West 12.7 mph 28.8 mph N/A   Overcast
5:55 AM 39.4 °F 30.1 °F 39.0 °F 99% 29.24 in 7.0 mi West 18.4 mph 25.3 mph N/A   Light Drizzle
6:15 AM 39.0 °F 30.6 °F 38.3 °F 97% 29.26 in 10.0 mi West 15.0 mph 20.7 mph N/A   Overcast
6:35 AM 38.1 °F 28.8 °F 37.0 °F 96% 29.27 in 10.0 mi West 17.3 mph 25.3 mph N/A   Light Drizzle
6:55 AM 37.6 °F 29.1 °F 36.5 °F 96% 29.28 in 10.0 mi West 13.8 mph 23.0 mph N/A Rain Light Rain
7:15 AM 37.6 °F 31.6 °F 37.4 °F 99% 29.28 in 4.0 mi West 8.1 mph - N/A   Overcast
7:35 AM 38.3 °F 31.9 °F 38.3 °F 100% 29.28 in 7.0 mi West 9.2 mph - N/A   Light Drizzle
7:55 AM 39.2 °F 30.5 °F 38.3 °F 97% 29.29 in 10.0 mi West 16.1 mph 21.9 mph N/A Rain Light Rain
8:15 AM 38.7 °F 29.1 °F 37.6 °F 96% 29.30 in 7.0 mi West 18.4 mph 27.6 mph N/A   Light Drizzle
8:35 AM 38.7 °F 30.1 °F 37.6 °F 96% 29.31 in 7.0 mi West 15.0 mph 29.9 mph N/A Rain Rain
8:55 AM 39.2 °F 29.0 °F 37.9 °F 95% 29.32 in 10.0 mi West 21.9 mph 29.9 mph N/A   Light Drizzle
9:15 AM 38.7 °F 29.8 °F 37.4 °F 95% 29.33 in 10.0 mi West 16.1 mph 29.9 mph N/A   Overcast
9:55 AM 38.8 °F 28.8 °F 37.0 °F 93% 29.34 in 7.0 mi West 20.7 mph 31.1 mph N/A   Light Drizzle
10:15 AM 39.0 °F 29.6 °F 36.9 °F 92% 29.35 in 10.0 mi West 18.4 mph 27.6 mph N/A   Overcast
10:35 AM 39.0 °F 29.0 °F 36.5 °F 91% 29.36 in 10.0 mi West 20.7 mph 28.8 mph N/A   Overcast
10:55 AM 38.7 °F 29.1 °F 36.5 °F 92% 29.37 in 10.0 mi West 18.4 mph 26.5 mph N/A   Light Drizzle
11:15 AM 38.8 °F 29.7 °F 36.1 °F 90% 29.39 in 10.0 mi West 17.3 mph 29.9 mph N/A   Overcast
11:55 AM 39.2 °F 29.0 °F 35.6 °F 87% 29.41 in 10.0 mi West 21.9 mph 31.1 mph N/A   Overcast
12:15 PM 39.2 °F 29.3 °F 36.0 °F 88% 29.41 in 7.0 mi West 20.7 mph 28.8 mph N/A   Overcast
12:35 PM 39.2 °F 30.8 °F 35.8 °F 88% 29.42 in 10.0 mi West 15.0 mph 26.5 mph N/A   Overcast
12:55 PM 39.2 °F 30.5 °F 36.0 °F 88% 29.43 in 10.0 mi WSW 16.1 mph 21.9 mph N/A   Overcast
1:15 PM 38.8 °F 28.5 °F 36.1 °F 90% 29.43 in 7.0 mi West 21.9 mph 27.6 mph N/A   Overcast
1:35 PM 38.8 °F 28.0 °F 36.1 °F 90% 29.44 in 5.0 mi West 24.2 mph 29.9 mph N/A   Overcast
1:55 PM 38.8 °F 30.4 °F 36.5 °F 91% 29.45 in 7.0 mi West 15.0 mph 26.5 mph N/A Rain Light Rain
2:15 PM 39.2 °F 30.2 °F 36.5 °F 90% 29.46 in 10.0 mi WSW 17.3 mph 26.5 mph N/A   Light Drizzle
2:35 PM 39.2 °F 30.8 °F 36.7 °F 91% 29.46 in 7.0 mi West 15.0 mph 26.5 mph N/A   Light Drizzle
2:55 PM 39.2 °F 29.8 °F 36.5 °F 90% 29.48 in 10.0 mi WSW 18.4 mph 25.3 mph N/A   Overcast
3:15 PM 38.3 °F 30.1 °F 36.5 °F 93% 29.48 in 5.0 mi West 13.8 mph 25.3 mph N/A   Light Drizzle
3:55 PM 39.2 °F 30.5 °F 34.7 °F 84% 29.51 in 10.0 mi West 16.1 mph 29.9 mph N/A   Overcast
4:35 PM 38.1 °F 29.5 °F 35.1 °F 89% 29.53 in 10.0 mi West 15.0 mph 24.2 mph N/A   Overcast
4:55 PM 38.7 °F 29.5 °F 34.7 °F 86% 29.53 in 10.0 mi WSW 17.3 mph 25.3 mph N/A   Overcast
5:15 PM 38.3 °F 27.6 °F 34.3 °F 86% 29.55 in 10.0 mi West 23.0 mph 31.1 mph N/A   Overcast
5:55 PM 38.7 °F 30.1 °F 32.9 °F 80% 29.57 in 10.0 mi WSW 15.0 mph 25.3 mph N/A   Overcast
6:15 PM 38.7 °F 30.1 °F 32.4 °F 78% 29.58 in 10.0 mi West 15.0 mph 24.2 mph N/A   Overcast
6:35 PM 38.5 °F 29.2 °F 32.4 °F 79% 29.58 in 10.0 mi West 17.3 mph 27.6 mph N/A   Overcast
6:55 PM 38.7 °F 28.8 °F 32.0 °F 77% 29.59 in 10.0 mi WSW 19.6 mph 25.3 mph N/A   Overcast
7:15 PM 38.5 °F 28.3 °F 32.5 °F 79% 29.60 in 10.0 mi West 20.7 mph 26.5 mph N/A   Overcast
7:35 PM 39.0 °F 30.6 °F 32.4 °F 77% 29.60 in 10.0 mi West 15.0 mph 24.2 mph N/A   Overcast
7:55 PM 38.7 °F 29.8 °F 32.9 °F 80% 29.61 in 10.0 mi West 16.1 mph 21.9 mph N/A   Overcast
8:15 PM 38.8 °F 30.4 °F 32.9 °F 79% 29.62 in 10.0 mi West 15.0 mph 24.2 mph N/A   Overcast
8:35 PM 38.7 °F 29.8 °F 33.1 °F 80% 29.62 in 10.0 mi West 16.1 mph 20.7 mph N/A   Overcast
8:55 PM 39.2 °F 31.6 °F 32.9 °F 78% 29.63 in 10.0 mi West 12.7 mph - N/A   Overcast
9:15 PM 39.4 °F 31.4 °F 32.4 °F 76% 29.63 in 10.0 mi West 13.8 mph 19.6 mph N/A   Overcast
9:35 PM 39.6 °F 32.1 °F 32.4 °F 75% 29.63 in 10.0 mi West 12.7 mph 20.7 mph N/A   Overcast
9:55 PM 39.7 °F 31.5 °F 32.4 °F 75% 29.64 in 10.0 mi West 15.0 mph 21.9 mph 0.01 in   Overcast
10:15 PM 39.7 °F 33.2 °F 32.4 °F 75% 29.64 in 10.0 mi WSW 10.4 mph 21.9 mph N/A   Overcast
10:35 PM 39.6 °F 32.1 °F 32.2 °F 75% 29.65 in 10.0 mi West 12.7 mph 21.9 mph N/A   Overcast
10:55 PM 39.4 °F 31.8 °F 32.2 °F 75% 29.65 in 10.0 mi West 12.7 mph 19.6 mph N/A   Overcast
11:35 PM 39.6 °F 31.7 °F 32.0 °F 74% 29.66 in 10.0 mi West 13.8 mph 19.6 mph N/A   Overcast
11:55 PM 39.7 °F 31.5 °F 32.0 °F 74% 29.66 in 10.0 mi West 15.0 mph 20.7 mph N/A   Overcast